WXM80 ListenWXM80 Stop

You find our weather info also at:

UK Metoffice

WeatherCloud

Weather Underground

Northeastern Weather Network

AWEKAS

Citizen Weather Observer Program (CWOP)

HAMweather, WeatherForYou, PWS Weather


Weather Underground History page Text

Daily Summary for April 7, 2017 Units:  Metric    English   Both
« Previous Day
Next Day »
Daily Weekly Monthly Yearly Custom
  High: Low: Average:
Temperature: 10.4 °C 5.1 °C 8.2 °C
Dew Point: 8.1 °C -0.5 °C 3.6 °C
Humidity: 93 % 59 % 73 %
Wind Speed: 19.2 km/h 2.6 km/h 10.1 km/h
Wind Gust: 35.4 km/h - -
Wind:- - WSW
Pressure: 1001.6 hPa 990.4 hPa -
Precipitation: 0 mm    
Historical Graphs
 
 
Tabular Data for April 7, 2017
Time Temperature Dew Point Pressure Wind Wind Speed Wind Gust Humidity Rainfall Rate (Hourly)
00:00 9.6 °C 7.8 °C 990.4 hPa SW 8 km/h 16.7 km/h 89 % 0 mm
00:05 9.6 °C 8 °C 990.4 hPa SW 10.1 km/h 14.8 km/h 90 % 0 mm
00:10 9.6 °C 8 °C 990.4 hPa South 8 km/h 17.7 km/h 90 % 0 mm
00:15 9.6 °C 8 °C 990.4 hPa SSW 8.5 km/h 16.7 km/h 90 % 0 mm
00:20 9.6 °C 8 °C 990.4 hPa SW 4.3 km/h 18.5 km/h 90 % 0 mm
00:25 9.5 °C 7.9 °C 990.7 hPa South 6 km/h 11.1 km/h 90 % 0 mm
00:30 9.5 °C 7.9 °C 990.7 hPa SSW 6.8 km/h 9.3 km/h 90 % 0 mm
00:35 9.5 °C 7.9 °C 990.4 hPa SW 9.3 km/h 18.5 km/h 90 % 0 mm
00:40 9.5 °C 8.1 °C 990.4 hPa South 6.1 km/h 14.8 km/h 91 % 0 mm
00:46 9.5 °C 8.1 °C 990.7 hPa SSW 7.2 km/h 18.5 km/h 91 % 0 mm
00:56 9.4 °C 8.1 °C 990.7 hPa SSW 3.1 km/h 5.6 km/h 91 % 0 mm
01:01 9.4 °C 8.1 °C 991.1 hPa SSW 5.8 km/h 7.4 km/h 91 % 0 mm
01:06 9.4 °C 8 °C 991.1 hPa South 8 km/h 11.1 km/h 91 % 0 mm
01:09 9.3 °C 7.9 °C 991.1 hPa South 2.9 km/h 9.3 km/h 91 % 0 mm
01:14 9.2 °C 7.8 °C 991.1 hPa South 7.4 km/h 14.8 km/h 91 % 0 mm
01:19 9.2 °C 7.8 °C 991.1 hPa South 4.8 km/h 11.1 km/h 91 % 0 mm
01:24 9.1 °C 7.7 °C 991.1 hPa South 4.8 km/h 7.4 km/h 91 % 0 mm
01:29 9 °C 7.6 °C 991.1 hPa South 6.8 km/h 14.8 km/h 91 % 0 mm
01:34 8.9 °C 7.6 °C 991.1 hPa South 5.8 km/h 16.7 km/h 91 % 0 mm
01:39 8.9 °C 7.5 °C 991.1 hPa South 4.8 km/h 9.3 km/h 91 % 0 mm
01:44 8.8 °C 7.6 °C 991.1 hPa South 5.1 km/h 9.3 km/h 92 % 0 mm
01:49 8.8 °C 7.6 °C 991.1 hPa SSW 4.8 km/h 7.4 km/h 92 % 0 mm
01:54 8.8 °C 7.6 °C 990.7 hPa SSW 3.4 km/h 9.3 km/h 92 % 0 mm
01:59 8.8 °C 7.6 °C 990.7 hPa SSW 4.7 km/h 7.4 km/h 92 % 0 mm
02:04 8.8 °C 7.6 °C 990.7 hPa South 2.7 km/h 7.4 km/h 92 % 0 mm
02:09 8.8 °C 7.7 °C 990.7 hPa SSW 4.3 km/h 5.6 km/h 93 % 0 mm
02:15 8.8 °C 7.6 °C 990.7 hPa SSW 4 km/h 8 km/h 92 % 0 mm
02:20 8.8 °C 7.6 °C 990.7 hPa SSW 5.8 km/h 11.1 km/h 92 % 0 mm
02:25 8.8 °C 7.6 °C 990.7 hPa SSW 7.1 km/h 11.1 km/h 92 % 0 mm
02:30 8.8 °C 7.6 °C 990.7 hPa South 9 km/h 14.8 km/h 92 % 0 mm
02:35 8.8 °C 7.6 °C 990.7 hPa SSW 5.1 km/h 9.7 km/h 92 % 0 mm
02:38 8.8 °C 7.6 °C 990.7 hPa SW 8.9 km/h 17.7 km/h 92 % 0 mm
02:43 8.8 °C 7.4 °C 990.7 hPa SW 7.1 km/h 11.1 km/h 91 % 0 mm
02:49 8.8 °C 7.4 °C 990.7 hPa SSW 4.5 km/h 9.3 km/h 91 % 0 mm
02:54 8.8 °C 7.4 °C 990.7 hPa SSW 2.6 km/h 7.4 km/h 91 % 0 mm
02:59 8.8 °C 7.4 °C 990.7 hPa SW 7.9 km/h 11.3 km/h 91 % 0 mm
03:04 8.7 °C 7.2 °C 990.7 hPa SSW 5.1 km/h 5.6 km/h 90 % 0 mm
03:09 8.7 °C 7.1 °C 990.7 hPa South 3.2 km/h 5.6 km/h 90 % 0 mm
03:14 8.7 °C 6.9 °C 991.1 hPa SSW 7.7 km/h 14.5 km/h 89 % 0 mm
03:19 8.6 °C 6.9 °C 991.1 hPa SSW 6.1 km/h 14.8 km/h 89 % 0 mm
03:24 8.6 °C 6.6 °C 991.1 hPa SSW 7.4 km/h 14.8 km/h 87 % 0 mm
03:29 8.8 °C 6.6 °C 990.7 hPa SW 8.7 km/h 12.9 km/h 86 % 0 mm
03:34 8.8 °C 6.4 °C 990.7 hPa SSW 7.9 km/h 14.8 km/h 85 % 0 mm
03:39 8.9 °C 6.5 °C 991.1 hPa SW 10.1 km/h 14.8 km/h 85 % 0 mm
03:44 8.9 °C 6.4 °C 991.1 hPa SSW 10.5 km/h 22.2 km/h 84 % 0 mm
03:49 9 °C 6.3 °C 990.7 hPa SW 14.6 km/h 19.3 km/h 83 % 0 mm
03:54 9.1 °C 6.2 °C 990.7 hPa WSW 9.5 km/h 18.5 km/h 82 % 0 mm
03:59 9.2 °C 6.1 °C 990.7 hPa WSW 5.1 km/h 14.8 km/h 81 % 0 mm
04:05 9.2 °C 6.3 °C 990.7 hPa WSW 6.8 km/h 16.1 km/h 82 % 0 mm
04:10 9.1 °C 6.2 °C 990.7 hPa SW 7.4 km/h 14.8 km/h 82 % 0 mm
04:15 9.1 °C 5.6 °C 990.7 hPa WSW 9.2 km/h 14.8 km/h 79 % 0 mm
04:20 9.1 °C 5.4 °C 990.7 hPa SSW 9.3 km/h 16.7 km/h 78 % 0 mm
04:25 9 °C 5.2 °C 990.7 hPa WSW 10.3 km/h 16.7 km/h 77 % 0 mm
04:30 9 °C 5.4 °C 990.7 hPa WSW 6.6 km/h 11.1 km/h 78 % 0 mm
04:35 8.9 °C 5.1 °C 990.7 hPa South 8.9 km/h 14.8 km/h 77 % 0 mm
04:40 8.9 °C 4.9 °C 990.7 hPa SW 12.7 km/h 22.2 km/h 76 % 0 mm
04:45 8.8 °C 5 °C 990.7 hPa WSW 7.2 km/h 14.8 km/h 77 % 0 mm
04:50 8.8 °C 4.8 °C 990.7 hPa SSW 8.4 km/h 12.9 km/h 76 % 0 mm
04:55 8.8 °C 4.8 °C 990.7 hPa SSW 9 km/h 18.5 km/h 76 % 0 mm
05:00 8.7 °C 4.7 °C 990.7 hPa SW 7.4 km/h 11.3 km/h 76 % 0 mm
05:05 8.6 °C 4.6 °C 990.7 hPa WSW 8 km/h 16.7 km/h 76 % 0 mm
05:10 8.6 °C 4.4 °C 990.7 hPa WSW 2.6 km/h 9.3 km/h 75 % 0 mm
05:15 8.4 °C 4.3 °C 990.7 hPa WSW 10.1 km/h 18.5 km/h 75 % 0 mm
05:20 8.3 °C 4.3 °C 990.7 hPa SW 7.6 km/h 14.8 km/h 76 % 0 mm
05:25 8.2 °C 4.2 °C 990.7 hPa SW 6.1 km/h 16.7 km/h 76 % 0 mm
05:35 8.1 °C 4.3 °C 990.7 hPa SW 6.3 km/h 11.1 km/h 77 % 0 mm
05:40 7.9 °C 4.2 °C 990.7 hPa SSW 7.1 km/h 11.3 km/h 77 % 0 mm
05:45 7.8 °C 3.9 °C 990.7 hPa WSW 6.8 km/h 20.4 km/h 76 % 0 mm
05:50 7.8 °C 3.8 °C 991.1 hPa SW 3.1 km/h 5.6 km/h 76 % 0 mm
05:55 7.7 °C 3.9 °C 991.1 hPa SW 7.1 km/h 14.8 km/h 77 % 0 mm
06:00 7.7 °C 3.9 °C 991.1 hPa SSW 3.2 km/h 14.8 km/h 77 % 0 mm
06:05 7.6 °C 3.8 °C 991.1 hPa SW 9.2 km/h 13 km/h 77 % 0 mm
06:10 7.6 °C 3.8 °C 991.1 hPa WSW 8 km/h 14.8 km/h 77 % 0 mm
06:15 7.4 °C 3.8 °C 991.1 hPa SSW 6.3 km/h 13 km/h 78 % 0 mm
06:20 7.4 °C 3.6 °C 991.1 hPa SW 9.5 km/h 16.7 km/h 77 % 0 mm
06:25 7.3 °C 3.7 °C 991.4 hPa SSW 11.3 km/h 18.5 km/h 78 % 0 mm
06:30 7.3 °C 3.5 °C 991.4 hPa SW 14.3 km/h 18.5 km/h 77 % 0 mm
06:35 7.3 °C 3.5 °C 991.1 hPa SW 13.2 km/h 22.2 km/h 77 % 0 mm
06:41 7.3 °C 3.7 °C 991.4 hPa WSW 3.4 km/h 7.4 km/h 78 % 0 mm
06:46 7.2 °C 3.6 °C 991.4 hPa South 4.5 km/h 9.3 km/h 78 % 0 mm
06:51 7.2 °C 3.6 °C 991.4 hPa SW 8.2 km/h 13 km/h 78 % 0 mm
06:56 7.1 °C 3.6 °C 991.4 hPa SW 6 km/h 16.7 km/h 78 % 0 mm
07:01 7.1 °C 3.6 °C 991.4 hPa SW 9 km/h 14.5 km/h 78 % 0 mm
07:06 7.2 °C 3.6 °C 991.4 hPa SSW 10.5 km/h 17.7 km/h 78 % 0 mm
07:11 7.3 °C 3.7 °C 991.4 hPa SSW 5.6 km/h 13 km/h 78 % 0 mm
07:16 7.4 °C 3.6 °C 991.4 hPa SW 9.3 km/h 18.5 km/h 77 % 0 mm
07:21 7.6 °C 3.6 °C 991.8 hPa SSW 12.1 km/h 18.5 km/h 76 % 0 mm
07:26 7.7 °C 3.5 °C 991.8 hPa WSW 10.1 km/h 20.4 km/h 75 % 0 mm
07:31 7.8 °C 3.6 °C 991.8 hPa SSW 12.4 km/h 18.5 km/h 75 % 0 mm
07:36 7.9 °C 3.6 °C 991.8 hPa SW 15 km/h 25.9 km/h 74 % 0 mm
07:41 8 °C 3.7 °C 991.4 hPa SW 11.4 km/h 24.1 km/h 74 % 0 mm
07:46 8.1 °C 3.8 °C 991.8 hPa West 11.1 km/h 16.1 km/h 74 % 0 mm
07:51 8.3 °C 3.9 °C 991.8 hPa WSW 5.8 km/h 11.1 km/h 74 % 0 mm
07:56 8.4 °C 3.8 °C 991.8 hPa SSW 13.2 km/h 22.2 km/h 73 % 0 mm
08:01 8.6 °C 3.8 °C 991.8 hPa SSW 9 km/h 20.4 km/h 72 % 0 mm
08:06 8.8 °C 4 °C 991.8 hPa SW 8.5 km/h 12.9 km/h 72 % 0 mm
08:11 9 °C 4 °C 991.8 hPa SSW 13.2 km/h 18.5 km/h 71 % 0 mm
08:16 9.2 °C 4 °C 992.1 hPa SW 10 km/h 22.2 km/h 70 % 0 mm
08:21 9.3 °C 4.1 °C 991.8 hPa WSW 8.9 km/h 13 km/h 70 % 0 mm
08:26 9.5 °C 4.3 °C 991.8 hPa SSW 9.7 km/h 11.1 km/h 70 % 0 mm
08:31 9.7 °C 4.3 °C 991.8 hPa South 14 km/h 24.1 km/h 69 % 0 mm
08:36 9.8 °C 4.2 °C 991.8 hPa WSW 9.7 km/h 18.5 km/h 68 % 0 mm
08:42 10.1 °C 4.4 °C 991.8 hPa SW 14.5 km/h 22.5 km/h 68 % 0 mm
08:52 10.4 °C 4.3 °C 992.1 hPa SSW 7.2 km/h 16.1 km/h 66 % 0 mm
08:57 10.2 °C 3.9 °C 992.1 hPa SW 14.5 km/h 24.1 km/h 65 % 0 mm
09:02 10.1 °C 3.8 °C 992.1 hPa WSW 8.4 km/h 18.5 km/h 65 % 0 mm
09:07 9.8 °C 3.8 °C 992.1 hPa WSW 11.6 km/h 18.5 km/h 66 % 0 mm
09:12 9.6 °C 3.6 °C 992.1 hPa SW 7.2 km/h 18.5 km/h 66 % 0 mm
09:17 9.6 °C 3.7 °C 992.1 hPa SW 12.7 km/h 22.2 km/h 67 % 0 mm
09:22 9.4 °C 3.4 °C 992.4 hPa WSW 11.3 km/h 18.5 km/h 66 % 0 mm
09:27 9.3 °C 3.4 °C 992.4 hPa SSW 12.2 km/h 16.7 km/h 67 % 0 mm
09:32 9.2 °C 3.3 °C 992.4 hPa SW 5.6 km/h 13 km/h 67 % 0 mm
09:37 9.1 °C 3.2 °C 992.4 hPa WSW 12.2 km/h 27.8 km/h 67 % 0 mm
09:42 9.1 °C 3.4 °C 992.4 hPa West 7.4 km/h 11.1 km/h 68 % 0 mm
09:47 9 °C 3.2 °C 992.4 hPa WSW 14.8 km/h 29.6 km/h 67 % 0 mm
09:52 8.9 °C 3.2 °C 992.4 hPa SW 11.9 km/h 29 km/h 67 % 0 mm
09:57 8.9 °C 3.1 °C 992.4 hPa SW 9.2 km/h 18.5 km/h 67 % 0 mm
10:02 8.9 °C 3.1 °C 992.4 hPa SW 16.3 km/h 24.1 km/h 67 % 0 mm
10:07 8.9 °C 3.3 °C 992.4 hPa WSW 13.5 km/h 22.5 km/h 68 % 0 mm
10:17 8.8 °C 3.1 °C 992.4 hPa West 13.7 km/h 29.6 km/h 67 % 0 mm
10:22 8.8 °C 3 °C 992.4 hPa WSW 8.9 km/h 18.5 km/h 67 % 0 mm
10:27 8.8 °C 3 °C 992.4 hPa SW 10.6 km/h 24.1 km/h 67 % 0 mm
10:32 8.7 °C 2.9 °C 992.8 hPa WSW 18.7 km/h 29.6 km/h 67 % 0 mm
10:37 8.7 °C 3.2 °C 992.4 hPa SW 12.7 km/h 18.5 km/h 68 % 0 mm
10:42 8.7 °C 3.2 °C 992.4 hPa SW 14.5 km/h 25.7 km/h 68 % 0 mm
10:47 8.8 °C 3.2 °C 992.8 hPa SSW 6 km/h 13 km/h 68 % 0 mm
10:52 8.8 °C 3.2 °C 992.8 hPa SW 12.9 km/h 29 km/h 68 % 0 mm
10:57 8.8 °C 3.2 °C 992.8 hPa SW 9.2 km/h 16.7 km/h 68 % 0 mm
11:02 8.8 °C 3.2 °C 992.8 hPa SW 10.8 km/h 27.8 km/h 68 % 0 mm
11:07 8.9 °C 3.5 °C 992.8 hPa SSW 14.8 km/h 22.2 km/h 69 % 0 mm
11:12 8.9 °C 3.6 °C 992.8 hPa WSW 12.7 km/h 20.4 km/h 69 % 0 mm
11:17 9.1 °C 3.7 °C 992.8 hPa SW 10.8 km/h 20.9 km/h 69 % 0 mm
11:23 9.1 °C 3.7 °C 992.8 hPa WSW 9.8 km/h 14.8 km/h 69 % 0 mm
11:28 9.1 °C 3.7 °C 992.8 hPa West 9.7 km/h 20.4 km/h 69 % 0 mm
11:33 9.1 °C 3.9 °C 992.8 hPa SSW 13.4 km/h 22.2 km/h 70 % 0 mm
11:38 9.2 °C 3.8 °C 992.8 hPa WSW 13.2 km/h 18.5 km/h 69 % 0 mm
11:43 9.3 °C 4.1 °C 992.8 hPa SW 10.5 km/h 25.9 km/h 70 % 0 mm
11:48 9.3 °C 3.9 °C 992.8 hPa SSW 16.3 km/h 20.4 km/h 69 % 0 mm
11:53 9.3 °C 4.1 °C 992.8 hPa WSW 12.7 km/h 22.2 km/h 70 % 0 mm
11:58 9.4 °C 4.2 °C 993.1 hPa WSW 9.2 km/h 14.8 km/h 70 % 0 mm
12:03 9.4 °C 4 °C 992.8 hPa West 10.5 km/h 25.9 km/h 69 % 0 mm
12:08 9.4 °C 4.2 °C 992.8 hPa WNW 11.3 km/h 18.5 km/h 70 % 0 mm
12:13 9.3 °C 3.9 °C 992.8 hPa WSW 9.5 km/h 18.5 km/h 69 % 0 mm
12:18 9.2 °C 3.8 °C 992.8 hPa WSW 14.2 km/h 25.9 km/h 69 % 0 mm
12:23 9.2 °C 4.1 °C 992.8 hPa WSW 12.2 km/h 18.5 km/h 70 % 0 mm
12:28 9.2 °C 4.1 °C 992.8 hPa SW 17.2 km/h 27.8 km/h 70 % 0 mm
12:33 9.3 °C 4.3 °C 992.8 hPa West 11.6 km/h 20.9 km/h 71 % 0 mm
12:38 9.4 °C 4.2 °C 992.8 hPa SSW 9.8 km/h 16.7 km/h 70 % 0 mm
12:43 9.5 °C 4.3 °C 992.8 hPa WSW 12.6 km/h 17.7 km/h 70 % 0 mm
12:49 9.4 °C 3.8 °C 992.8 hPa WSW 18.3 km/h 29.6 km/h 68 % 0 mm
12:54 9.2 °C 3.8 °C 992.8 hPa WSW 13.4 km/h 24.1 km/h 69 % 0 mm
12:59 8.9 °C 3.9 °C 993.1 hPa WSW 12.7 km/h 24.1 km/h 71 % 0 mm
13:04 8.2 °C 3.8 °C 993.1 hPa WSW 12.4 km/h 20.4 km/h 74 % 0 mm
13:09 7.7 °C 3.9 °C 993.1 hPa WSW 8.5 km/h 18.5 km/h 77 % 0 mm
13:19 7.2 °C 3.8 °C 993.5 hPa WNW 3.1 km/h 5.6 km/h 79 % 0 mm
13:24 7.1 °C 3.6 °C 993.5 hPa WSW 10.5 km/h 24.1 km/h 78 % 0 mm
13:29 7 °C 3.6 °C 993.5 hPa West 11.4 km/h 18.5 km/h 79 % 0 mm
13:34 7 °C 3.8 °C 993.1 hPa SW 9 km/h 14.8 km/h 80 % 0 mm
13:39 7.1 °C 3.8 °C 993.1 hPa WSW 11.3 km/h 17.7 km/h 80 % 0 mm
13:44 7.2 °C 3.8 °C 993.1 hPa WNW 6.4 km/h 9.3 km/h 79 % 0 mm
13:49 7.4 °C 4 °C 993.1 hPa WSW 9.5 km/h 17.7 km/h 79 % 0 mm
13:54 7.6 °C 3.9 °C 993.1 hPa WSW 4 km/h 14.8 km/h 78 % 0 mm
13:59 7.8 °C 4.2 °C 993.1 hPa West 9.8 km/h 18.5 km/h 78 % 0 mm
14:04 7.9 °C 4.3 °C 993.1 hPa West 4.8 km/h 18.5 km/h 78 % 0 mm
14:09 8.1 °C 4.8 °C 993.1 hPa WSW 8.7 km/h 13 km/h 80 % 0 mm
14:14 8.3 °C 5.3 °C 993.1 hPa WNW 8 km/h 14.5 km/h 81 % 0 mm
14:20 8.7 °C 5.1 °C 993.1 hPa WSW 11.4 km/h 18.5 km/h 78 % 0 mm
14:25 9 °C 4.8 °C 993.1 hPa WSW 14.6 km/h 18.5 km/h 75 % 0 mm
14:30 9.1 °C 4.3 °C 993.1 hPa West 8.4 km/h 18.5 km/h 72 % 0 mm
14:35 9.2 °C 4.2 °C 993.1 hPa WSW 13.7 km/h 19.3 km/h 71 % 0 mm
14:40 9.3 °C 4.1 °C 993.1 hPa WSW 9.3 km/h 18.5 km/h 70 % 0 mm
14:45 9.3 °C 4.1 °C 993.1 hPa WSW 12.4 km/h 18.5 km/h 70 % 0 mm
14:50 9.3 °C 3.7 °C 993.5 hPa WSW 13.5 km/h 24.1 km/h 68 % 0 mm
14:55 9.3 °C 3.9 °C 993.5 hPa WSW 8.2 km/h 20.9 km/h 69 % 0 mm
15:00 9.4 °C 4.1 °C 993.5 hPa WSW 8.5 km/h 20.4 km/h 69 % 0 mm
15:05 9.5 °C 3.7 °C 993.5 hPa WSW 16.6 km/h 24.1 km/h 67 % 0 mm
15:10 9.3 °C 3.7 °C 993.5 hPa WSW 4.5 km/h 12.9 km/h 68 % 0 mm
15:15 9.4 °C 4 °C 993.1 hPa SW 13.4 km/h 22.2 km/h 69 % 0 mm
15:20 9.4 °C 4.1 °C 993.5 hPa WNW 4.2 km/h 7.4 km/h 69 % 0 mm
15:25 9.4 °C 3.8 °C 993.5 hPa SW 8.4 km/h 20.4 km/h 68 % 0 mm
15:30 9.5 °C 3.9 °C 993.5 hPa WSW 15 km/h 25.9 km/h 68 % 0 mm
15:35 9.5 °C 4.3 °C 993.5 hPa SW 8.4 km/h 16.7 km/h 70 % 0 mm
15:40 9.3 °C 4.3 °C 993.8 hPa SSW 6.9 km/h 16.1 km/h 71 % 0 mm
15:45 9.1 °C 4.1 °C 993.5 hPa West 11.3 km/h 18.5 km/h 71 % 0 mm
15:50 8.9 °C 3.9 °C 993.5 hPa SW 9.8 km/h 18.5 km/h 71 % 0 mm
15:55 8.8 °C 3.7 °C 993.5 hPa West 11.7 km/h 16.7 km/h 70 % 0 mm
16:00 8.8 °C 3.6 °C 993.5 hPa WSW 5.6 km/h 16.7 km/h 70 % 0 mm
16:05 8.8 °C 3.6 °C 993.8 hPa WSW 14.5 km/h 14.8 km/h 70 % 0 mm
16:10 8.8 °C 3.7 °C 993.8 hPa WSW 6.3 km/h 16.7 km/h 70 % 0 mm
16:15 8.8 °C 3.4 °C 993.8 hPa WSW 11.6 km/h 22.5 km/h 69 % 0 mm
16:20 8.9 °C 3.5 °C 993.8 hPa SW 12.6 km/h 18.5 km/h 69 % 0 mm
16:26 8.9 °C 3.3 °C 993.8 hPa West 13.5 km/h 22.2 km/h 68 % 0 mm
16:36 9 °C 3 °C 994.1 hPa WSW 6.4 km/h 14.8 km/h 66 % 0 mm
16:41 9.1 °C 2.8 °C 994.1 hPa WSW 10.3 km/h 16.7 km/h 65 % 0 mm
16:46 9.1 °C 3.1 °C 994.1 hPa WSW 12.9 km/h 20.4 km/h 66 % 0 mm
16:51 9.1 °C 3.4 °C 994.1 hPa WNW 11.1 km/h 22.2 km/h 68 % 0 mm
16:56 9.1 °C 3.3 °C 994.1 hPa WSW 6.8 km/h 18.5 km/h 67 % 0 mm
17:01 9.2 °C 3.3 °C 994.5 hPa WSW 14.6 km/h 18.5 km/h 67 % 0 mm
17:06 9.1 °C 2.9 °C 994.5 hPa West 11.4 km/h 16.7 km/h 65 % 0 mm
17:11 9.2 °C 2.3 °C 994.5 hPa West 12.6 km/h 20.4 km/h 62 % 0 mm
17:16 9.2 °C 2.1 °C 994.8 hPa WNW 11.7 km/h 24.1 km/h 61 % 0 mm
17:21 9.2 °C 2.1 °C 994.8 hPa NNW 11.3 km/h 14.8 km/h 61 % 0 mm
17:26 9.2 °C 2.1 °C 994.8 hPa West 13.4 km/h 18.5 km/h 61 % 0 mm
17:31 9.1 °C 2 °C 995.1 hPa SW 17.1 km/h 35.4 km/h 61 % 0 mm
17:36 9.1 °C 2.2 °C 995.1 hPa West 10.8 km/h 22.5 km/h 62 % 0 mm
17:41 8.9 °C 2.1 °C 995.1 hPa West 15.1 km/h 24.1 km/h 62 % 0 mm
17:46 8.9 °C 2 °C 995.1 hPa WNW 14.3 km/h 27.8 km/h 62 % 0 mm
17:51 8.8 °C 1.7 °C 995.1 hPa SW 12.1 km/h 20.4 km/h 61 % 0 mm
17:56 8.8 °C 1.7 °C 995.5 hPa West 15.6 km/h 27.8 km/h 61 % 0 mm
18:01 8.8 °C 1.9 °C 995.5 hPa WSW 14.8 km/h 22.2 km/h 62 % 0 mm
18:06 8.8 °C 1.9 °C 995.8 hPa WSW 13.7 km/h 20.4 km/h 62 % 0 mm
18:11 8.7 °C 1.6 °C 995.8 hPa NNW 9.8 km/h 18.5 km/h 61 % 0 mm
18:16 8.7 °C 1.6 °C 995.8 hPa SW 13.8 km/h 22.5 km/h 61 % 0 mm
18:21 8.6 °C 1.4 °C 995.8 hPa WSW 10.5 km/h 17.7 km/h 61 % 0 mm
18:26 8.5 °C 1.4 °C 996.2 hPa West 9.7 km/h 16.7 km/h 61 % 0 mm
18:31 8.4 °C 1.6 °C 996.2 hPa NW 15.8 km/h 29.6 km/h 62 % 0 mm
18:37 8.4 °C 1.5 °C 996.5 hPa SW 14.2 km/h 20.4 km/h 62 % 0 mm
18:42 8.3 °C 1.2 °C 996.5 hPa West 18.3 km/h 27.4 km/h 61 % 0 mm
18:47 8.2 °C 0.7 °C 996.8 hPa West 16.9 km/h 27.4 km/h 59 % 0 mm
18:52 8.1 °C 0.8 °C 996.8 hPa WNW 13.5 km/h 24.1 km/h 60 % 0 mm
18:57 8 °C 0.9 °C 996.8 hPa West 13 km/h 20.4 km/h 61 % 0 mm
19:02 7.9 °C 1.3 °C 997.2 hPa West 12.1 km/h 20.4 km/h 63 % 0 mm
19:07 7.6 °C 1 °C 997.2 hPa WNW 15 km/h 25.9 km/h 63 % 0 mm
19:12 7.4 °C 1 °C 997.2 hPa WSW 12.9 km/h 24.1 km/h 64 % 0 mm
19:17 7.2 °C 1.3 °C 997.2 hPa NW 12.4 km/h 25.9 km/h 66 % 0 mm
19:22 7.1 °C 1.3 °C 997.5 hPa WSW 16.4 km/h 29 km/h 67 % 0 mm
19:27 6.9 °C 0.9 °C 997.5 hPa NW 9.8 km/h 29.6 km/h 66 % 0 mm
19:32 6.8 °C 1.1 °C 997.9 hPa West 12.2 km/h 31.5 km/h 67 % 0 mm
19:37 6.7 °C 1.2 °C 997.9 hPa WNW 9.7 km/h 24.1 km/h 68 % 0 mm
19:42 6.6 °C 1.1 °C 998.2 hPa NW 10.9 km/h 20.4 km/h 68 % 0 mm
19:47 6.5 °C 1.2 °C 998.2 hPa WNW 5.8 km/h 20.4 km/h 69 % 0 mm
19:52 6.4 °C 1.2 °C 998.2 hPa WNW 8 km/h 20.9 km/h 69 % 0 mm
19:57 6.4 °C 1.1 °C 998.5 hPa West 6.9 km/h 18.5 km/h 69 % 0 mm
20:02 6.3 °C 1.1 °C 998.5 hPa WNW 14.5 km/h 25.7 km/h 69 % 0 mm
20:07 6.3 °C 0.8 °C 998.5 hPa WNW 7.2 km/h 27.8 km/h 68 % 0 mm
20:12 6.2 °C 0.7 °C 998.9 hPa WSW 10.5 km/h 22.2 km/h 68 % 0 mm
20:17 6.2 °C 0.9 °C 998.9 hPa WNW 9.7 km/h 24.1 km/h 69 % 0 mm
20:22 6.1 °C 0.8 °C 998.9 hPa West 14.3 km/h 24.1 km/h 69 % 0 mm
20:27 6.1 °C 0.8 °C 999.2 hPa NW 13.7 km/h 33.3 km/h 69 % 0 mm
20:32 6.1 °C 0.8 °C 999.2 hPa NW 15.4 km/h 27.8 km/h 69 % 0 mm
20:37 6.1 °C 0.8 °C 999.2 hPa NW 13.4 km/h 18.5 km/h 69 % 0 mm
20:42 6 °C 0.7 °C 999.5 hPa NW 14.6 km/h 18.5 km/h 69 % 0 mm
20:47 5.9 °C 0.7 °C 999.5 hPa West 9 km/h 20.4 km/h 69 % 0 mm
20:52 5.9 °C 0.6 °C 999.9 hPa WNW 12.9 km/h 25.7 km/h 69 % 0 mm
20:57 5.8 °C 0.6 °C 999.9 hPa WNW 19.2 km/h 31.5 km/h 69 % 0 mm
21:02 5.8 °C 0.3 °C 999.9 hPa West 15 km/h 22.2 km/h 68 % 0 mm
21:04 5.8 °C 0.3 °C 1000.2 hPa WNW 11.3 km/h 22.2 km/h 68 % 0 mm
21:09 5.7 °C 0.4 °C 1000.2 hPa West 11.3 km/h 24.1 km/h 69 % 0 mm
21:14 5.7 °C 0.4 °C 1000.6 hPa NW 11.7 km/h 27.4 km/h 69 % 0 mm
21:18 5.7 °C 0.2 °C 1000.6 hPa WNW 12.1 km/h 31.5 km/h 68 % 0 mm
21:23 5.6 °C 0.2 °C 1000.6 hPa WNW 16.3 km/h 29 km/h 68 % 0 mm
21:28 5.6 °C 0.4 °C 1000.6 hPa WNW 16.4 km/h 22.5 km/h 69 % 0 mm
21:33 5.6 °C 0.1 °C 1000.6 hPa WSW 10.8 km/h 20.4 km/h 68 % 0 mm
21:38 5.6 °C 0.1 °C 1000.9 hPa WSW 9.8 km/h 18.5 km/h 68 % 0 mm
21:43 5.6 °C -0.1 °C 1000.9 hPa NW 10.9 km/h 35.2 km/h 67 % 0 mm
21:48 5.5 °C -0.2 °C 1000.9 hPa WNW 12.6 km/h 18.5 km/h 67 % 0 mm
21:53 5.5 °C -0.2 °C 1000.9 hPa WNW 15.1 km/h 31.5 km/h 67 % 0 mm
21:58 5.5 °C -0.3 °C 1000.9 hPa WNW 12.7 km/h 22.2 km/h 66 % 0 mm
22:03 5.6 °C -0.1 °C 1000.9 hPa NW 13.2 km/h 20.9 km/h 67 % 0 mm
22:08 5.6 °C -0.1 °C 1000.9 hPa WNW 10.5 km/h 22.2 km/h 67 % 0 mm
22:13 5.6 °C -0.3 °C 1001.2 hPa WNW 8.4 km/h 18.5 km/h 66 % 0 mm
22:18 5.5 °C -0.2 °C 1001.2 hPa West 13.7 km/h 20.9 km/h 67 % 0 mm
22:23 5.5 °C -0.2 °C 1001.2 hPa WNW 5.6 km/h 14.8 km/h 67 % 0 mm
22:28 5.5 °C -0.2 °C 1001.2 hPa West 11.3 km/h 20.4 km/h 67 % 0 mm
22:38 5.4 °C -0.4 °C 1001.2 hPa West 11.9 km/h 22.2 km/h 66 % 0 mm
22:43 5.4 °C -0.3 °C 1001.2 hPa West 15.9 km/h 33.3 km/h 67 % 0 mm
22:48 5.4 °C -0.3 °C 1001.2 hPa NW 12.7 km/h 27.8 km/h 67 % 0 mm
22:53 5.3 °C -0.5 °C 1001.6 hPa NW 11.4 km/h 18.5 km/h 66 % 0 mm
22:58 5.3 °C -0.3 °C 1001.6 hPa NW 9.5 km/h 31.5 km/h 67 % 0 mm
23:03 5.3 °C -0.3 °C 1001.6 hPa West 13.4 km/h 24.1 km/h 67 % 0 mm
23:08 5.3 °C -0.3 °C 1001.6 hPa WNW 10.8 km/h 18.5 km/h 67 % 0 mm
23:13 5.2 °C -0.4 °C 1001.6 hPa WNW 11.9 km/h 22.2 km/h 67 % 0 mm
23:18 5.2 °C -0.4 °C 1001.6 hPa WNW 14.3 km/h 24.1 km/h 67 % 0 mm
23:23 5.2 °C -0.4 °C 1001.6 hPa WSW 11.9 km/h 20.4 km/h 67 % 0 mm
23:28 5.2 °C -0.4 °C 1001.6 hPa West 11.9 km/h 24.1 km/h 67 % 0 mm
23:33 5.2 °C -0.4 °C 1001.6 hPa West 15 km/h 22.2 km/h 67 % 0 mm
23:39 5.2 °C -0.4 °C 1001.6 hPa West 9.3 km/h 24.1 km/h 67 % 0 mm
23:44 5.2 °C -0.4 °C 1001.6 hPa WNW 10.8 km/h 24.1 km/h 67 % 0 mm
23:49 5.2 °C -0.4 °C 1001.6 hPa NNW 11.7 km/h 17.7 km/h 67 % 0 mm
23:54 5.1 °C -0.3 °C 1001.6 hPa NW 12.1 km/h 22.5 km/h 68 % 0 mm
23:59 5.1 °C -0.3 °C 1001.6 hPa SW 4.5 km/h 11.1 km/h 68 % 0 mm
Crab Meadow Weather
Compliments of Weather Underground - 3 mb

Script developed by  Jim McMurry - jmcmurry@mwt.net Adapted for the template by  Wim van der Kuil - Leuven-Template.eu

Astronomy: Pluto is not a planet, because it does not have a fixed orbit and it's orbit comes in between the orbit of another planet (Neptune).